| time (UTC) | temp C | wind direction | speed KPH | gust KPH | rain 1hr cm | rain 24hr cm | rain mn cm | humidity % | barometer mb |
| 20260508231607 | 18 | 224 | 0.0 | 9.7 | 0.00 | 0.00 | 0.00 | 61 | 1011.9 |
| 20260508230009 | 18 | 177 | 0.0 | 6.4 | 0.00 | 0.00 | 0.00 | 60 | 1011.7 |
| 20260508224506 | 18 | 146 | 1.6 | 9.7 | 0.00 | 0.00 | 0.00 | 59 | 1011.9 |
| 20260508223010 | 19 | 59 | 1.6 | 6.4 | 0.00 | 0.00 | 0.00 | 59 | 1011.9 |
| 20260508221508 | 20 | 52 | 0.0 | 4.8 | 0.00 | 0.00 | 0.00 | 58 | 1011.9 |
| 20260508220005 | 19 | 144 | 1.6 | 9.7 | 0.00 | 0.00 | 0.00 | 57 | 1011.8 |
| 20260508214505 | 20 | 124 | 0.0 | 8.0 | 0.00 | 0.00 | 0.00 | 58 | 1012.0 |
| 20260508213004 | 20 | 278 | 1.6 | 9.7 | 0.00 | 0.00 | 0.00 | 57 | 1011.5 |
| 20260508211503 | 20 | 120 | 0.0 | 6.4 | 0.00 | 0.00 | 0.00 | 59 | 1011.6 |
| 20260508210003 | 20 | 136 | 3.2 | 8.0 | 0.00 | 0.00 | 0.00 | 55 | 1011.8 |
| 20260508204503 | 20 | 239 | 1.6 | 9.7 | 0.00 | 0.00 | 0.00 | 55 | 1012.0 |
| 20260508203002 | 21 | 208 | 1.6 | 8.0 | 0.00 | 0.00 | 0.00 | 54 | 1012.0 |
| 20260508201612 | 21 | 298 | 0.0 | 4.8 | 0.00 | 0.00 | 0.00 | 52 | 1012.2 |
| 20260508200107 | 20 | 245 | 3.2 | 12.9 | 0.00 | 0.00 | 0.00 | 51 | 1012.3 |
| 20260508194600 | 20 | 56 | 1.6 | 11.3 | 0.00 | 0.00 | 0.00 | 51 | 1012.7 |
| 20260508193101 | 20 | 43 | 1.6 | 6.4 | 0.00 | 0.00 | 0.00 | 50 | 1013.0 |
| 20260508191551 | 20 | 26 | 0.0 | 12.9 | 0.00 | 0.00 | 0.00 | 52 | 1013.2 |
| 20260508190056 | 20 | 231 | 1.6 | 9.7 | 0.00 | 0.00 | 0.00 | 52 | 1013.4 |
| 20260508184601 | 20 | 140 | 0.0 | 6.4 | 0.00 | 0.00 | 0.00 | 51 | 1013.5 |
| 20260508183104 | 20 | 129 | 3.2 | 11.3 | 0.00 | 0.00 | 0.00 | 48 | 1013.6 |
| 20260508181551 | 20 | 50 | 3.2 | 9.7 | 0.00 | 0.00 | 0.00 | 50 | 1013.6 |
| 20260508180051 | 19 | 84 | 1.6 | 17.7 | 0.00 | 0.00 | 0.00 | 48 | 1014.2 |
| 20260508174602 | 20 | 177 | 3.2 | 16.1 | 0.00 | 0.00 | 0.00 | 48 | 1014.2 |
| 20260508173052 | 19 | 123 | 6.4 | 17.7 | 0.00 | 0.00 | 0.00 | 52 | 1014.4 |
| 20260508171556 | 19 | 268 | 3.2 | 11.3 | 0.00 | 0.00 | 0.00 | 51 | 1014.6 |
| 20260508170050 | 20 | 281 | 1.6 | 9.7 | 0.00 | 0.00 | 0.00 | 46 | 1014.9 |
| 20260508164549 | 19 | 105 | 0.0 | 9.7 | 0.00 | 0.00 | 0.00 | 45 | 1015.2 |
| 20260508163108 | 19 | 103 | 1.6 | 11.3 | 0.00 | 0.00 | 0.00 | 48 | 1015.3 |
| 20260508161540 | 18 | 243 | 1.6 | 12.9 | 0.00 | 0.00 | 0.00 | 47 | 1015.4 |
| 20260508160040 | 17 | 68 | 0.0 | 9.7 | 0.00 | 0.00 | 0.00 | 52 | 1015.7 |
| 20260508154545 | 18 | 118 | 4.8 | 9.7 | 0.00 | 0.00 | 0.00 | 49 | 1016.0 |
| 20260508153042 | 17 | 161 | 0.0 | 8.0 | 0.00 | 0.00 | 0.00 | 51 | 1016.0 |
| 20260508151542 | 17 | 245 | 3.2 | 11.3 | 0.00 | 0.00 | 0.00 | 54 | 1016.1 |
| 20260508150038 | 17 | 226 | 4.8 | 9.7 | 0.00 | 0.00 | 0.00 | 56 | 1016.1 |
| 20260508144539 | 16 | 290 | 1.6 | 11.3 | 0.00 | 0.00 | 0.00 | 59 | 1016.3 |
| 20260508143029 | 16 | 25 | 1.6 | 12.9 | 0.00 | 0.00 | 0.00 | 59 | 1016.4 |
| 20260508141529 | 16 | 252 | 0.0 | 9.7 | 0.00 | 0.00 | 0.00 | 60 | 1016.4 |
| 20260508140030 | 15 | 39 | 3.2 | 6.4 | 0.00 | 0.00 | 0.00 | 55 | 1016.4 |
| 20260508134526 | 15 | 76 | 1.6 | 9.7 | 0.00 | 0.00 | 0.00 | 56 | 1016.5 |
| 20260508133022 | 15 | 296 | 4.8 | 9.7 | 0.00 | 0.00 | 0.00 | 60 | 1016.5 |
| 20260508131517 | 13 | 336 | 1.6 | 9.7 | 0.00 | 0.00 | 0.00 | 68 | 1016.5 |
| 20260508130015 | 13 | 300 | 1.6 | 8.0 | 0.00 | 0.00 | 0.00 | 69 | 1016.5 |
| 20260508124511 | 12 | 298 | 1.6 | 8.0 | 0.00 | 0.00 | 0.00 | 75 | 1016.3 |
| 20260508123010 | 11 | 302 | 0.0 | 8.0 | 0.00 | 0.00 | 0.00 | 78 | 1016.2 |
| 20260508121506 | 10 | 260 | 0.0 | 3.2 | 0.00 | 0.23 | 0.00 | 87 | 1016.2 |
| 20260508120003 | 9 | 274 | 0.0 | 0.0 | 0.00 | 0.23 | 0.00 | 92 | 1016.0 |
| 20260508114600 | 8 | 289 | 0.0 | 4.8 | 0.00 | 0.23 | 0.00 | 92 | 1015.8 |
| 20260508114500 | 8 | 332 | 0.0 | 4.8 | 0.00 | 0.23 | 0.00 | 92 | 1015.7 |
| 20260508113100 | 7 | 303 | 0.0 | 1.6 | 0.00 | 0.23 | 0.00 | 95 | 1015.6 |
| 20260508111557 | 6 | 271 | 0.0 | 0.0 | 0.00 | 0.41 | 0.00 | 95 | 1015.3 |
| 20260508110113 | 6 | 271 | 0.0 | 4.8 | 0.00 | 0.41 | 0.00 | 95 | 1014.9 |
| 20260508104555 | 6 | 295 | 0.0 | 4.8 | 0.00 | 0.41 | 0.00 | 95 | 1014.8 |
| 20260508103051 | 6 | 309 | 1.6 | 4.8 | 0.00 | 0.41 | 0.00 | 94 | 1014.5 |
| 20260508101553 | 6 | 299 | 1.6 | 6.4 | 0.00 | 0.41 | 0.00 | 95 | 1014.1 |
| 20260508100044 | 7 | 288 | 1.6 | 4.8 | 0.00 | 0.41 | 0.00 | 94 | 1014.0 |
| 20260508094552 | 7 | 260 | 0.0 | 6.4 | 0.00 | 0.41 | 0.00 | 93 | 1013.7 |
| 20260508093053 | 7 | 288 | 0.0 | 3.2 | 0.00 | 0.41 | 0.00 | 90 | 1013.7 |
| 20260508091541 | 8 | 343 | 0.0 | 3.2 | 0.00 | 0.41 | 0.00 | 91 | 1013.6 |
| 20260508090053 | 7 | 290 | 0.0 | 6.4 | 0.00 | 0.41 | 0.00 | 93 | 1013.6 |
| 20260508084535 | 7 | 295 | 1.6 | 4.8 | 0.00 | 0.41 | 0.00 | 92 | 1013.5 |
| 20260508083037 | 8 | 342 | 0.0 | 4.8 | 0.00 | 0.41 | 0.00 | 88 | 1013.3 |
| 20260508081533 | 10 | 319 | 0.0 | 4.8 | 0.00 | 0.41 | 0.00 | 86 | 1013.3 |
| 20260508080037 | 9 | 353 | 0.0 | 3.2 | 0.00 | 0.41 | 0.00 | 89 | 1013.2 |
| 20260508074535 | 8 | 1 | 0.0 | 4.8 | 0.00 | 0.41 | 0.00 | 90 | 1013.0 |
| 20260508073027 | 8 | 304 | 0.0 | 1.6 | 0.00 | 0.41 | 0.00 | 93 | 1012.8 |
| 20260508071527 | 7 | 293 | 0.0 | 0.0 | 0.00 | 0.41 | 0.41 | 95 | 1012.7 |
| 20260508070022 | 7 | 291 | 0.0 | 0.0 | 0.00 | 0.41 | 0.41 | 93 | 1012.5 |
| 20260508064521 | 8 | 287 | 0.0 | 1.6 | 0.00 | 0.41 | 0.41 | 93 | 1012.6 |
| 20260508063021 | 8 | 295 | 0.0 | 1.6 | 0.00 | 0.41 | 0.41 | 94 | 1012.7 |
| 20260508061520 | 8 | 281 | 0.0 | 3.2 | 0.00 | 0.43 | 0.41 | 93 | 1012.4 |
| 20260508060017 | 8 | 302 | 0.0 | 1.6 | 0.00 | 0.43 | 0.41 | 92 | 1012.4 |
| 20260508054516 | 8 | 310 | 0.0 | 6.4 | 0.00 | 0.43 | 0.41 | 91 | 1012.4 |
| 20260508053013 | 9 | 271 | 0.0 | 1.6 | 0.00 | 0.43 | 0.41 | 91 | 1012.4 |
| 20260508051510 | 9 | 298 | 0.0 | 1.6 | 0.00 | 0.56 | 0.41 | 89 | 1012.2 |
| 20260508050007 | 10 | 252 | 0.0 | 1.6 | 0.00 | 0.56 | 0.41 | 88 | 1012.1 |
| 20260508044507 | 10 | 231 | 0.0 | 1.6 | 0.00 | 0.56 | 0.41 | 88 | 1011.9 |
| 20260508043004 | 10 | 240 | 0.0 | 0.0 | 0.00 | 0.56 | 0.41 | 88 | 1011.8 |
| 20260508041502 | 10 | 160 | 0.0 | 0.0 | 0.00 | 0.61 | 0.41 | 86 | 1011.6 |
| 20260508034604 | 11 | 52 | 0.0 | 1.6 | 0.00 | 0.61 | 0.41 | 82 | 1011.7 |
| 20260508033058 | 11 | 234 | 0.0 | 3.2 | 0.00 | 0.61 | 0.41 | 83 | 1011.7 |
| 20260508031602 | 11 | 117 | 0.0 | 0.0 | 0.00 | 0.64 | 0.41 | 83 | 1011.8 |
| 20260508030110 | 12 | 73 | 3.2 | 11.3 | 0.00 | 0.64 | 0.41 | 79 | 1011.6 |
| 20260508024549 | 12 | 224 | 0.0 | 6.4 | 0.00 | 0.64 | 0.41 | 77 | 1011.5 |
| 20260508023049 | 13 | 102 | 0.0 | 9.7 | 0.00 | 0.64 | 0.41 | 75 | 1011.2 |
| 20260508021546 | 13 | 257 | 3.2 | 9.7 | 0.00 | 0.66 | 0.41 | 74 | 1011.0 |
| 20260508020042 | 13 | 25 | 1.6 | 12.9 | 0.00 | 0.66 | 0.41 | 72 | 1010.9 |
| 20260508014540 | 13 | 87 | 8.0 | 20.9 | 0.00 | 0.66 | 0.41 | 72 | 1010.3 |
| 20260508013037 | 13 | 277 | 9.7 | 29.0 | 0.00 | 0.66 | 0.41 | 71 | 1010.2 |
| 20260508011535 | 13 | 288 | 6.4 | 16.1 | 0.00 | 0.81 | 0.41 | 72 | 1009.8 |
| 20260508010040 | 13 | 226 | 0.0 | 9.7 | 0.00 | 0.81 | 0.41 | 72 | 1009.5 |
| 20260508004531 | 14 | 319 | 8.0 | 20.9 | 0.00 | 0.81 | 0.41 | 70 | 1009.6 |
| 20260508003029 | 14 | 53 | 3.2 | 20.9 | 0.00 | 0.81 | 0.41 | 71 | 1009.4 |
| 20260508001534 | 14 | 42 | 3.2 | 22.5 | 0.00 | 1.09 | 0.41 | 71 | 1009.0 |
| 20260508000028 | 14 | 289 | 8.0 | 25.7 | 0.00 | 1.09 | 0.41 | 70 | 1008.9 |
| 20260507234528 | 15 | 351 | 8.0 | 24.1 | 0.00 | 1.09 | 0.41 | 69 | 1009.1 |
| 20260507233024 | 15 | 323 | 20.9 | 40.2 | 0.00 | 1.09 | 0.41 | 68 | 1009.2 |